sat.trackr.live / text

‹ back to catalog

YAOGAN-33 02

NORAD 53698 · 2022-106A

PAYLOAD ACTIVE UNKNOWN

§ Identity

Operator
Country
PRC
Launch date
2022-09-02
Launch site
JSC
Launch vehicle
Mass (kg)
RCS (m²)

External: N2YO · Heavens-Above · Gunter

§ Orbital elements

Epoch: 2026-09-20T22:50:14.840160Z

Period
98.71 min
Inclination
98.1848°
Eccentricity
0.0001402
Mean motion
14.58752381 rev/d
Perigee alt
696.2 km
Apogee alt
698.2 km
Semi-major
7,075.3 km
B*
2.4898e-5
RAAN
270.3949°
Arg perigee
173.9196°
Mean anomaly
186.2021°
Rev number
21,568

§ Raw data

YAOGAN-33 021 53698U 22106A   26263.95156065  .00000071  00000+0  24898-4 0  99902 53698  98.1848 270.3949 0001402 173.9196 186.2021 14.58752381215684

JSON: /api/v1/satellites/53698 · /tle

For live sub-satellite position, see the globe view (requires WebGL).

§ Visibility from observer

Set your observer location to see the next 7 days of passes ≥ 10°. The values pass through the URL so the page stays shareable.

No JS? Fill the form by hand. The geolocation button needs JavaScript.